| time (UTC) | temp F | wind direction | speed MPH | gust MPH | rain 1hr in | rain 24hr in | rain mn in | humidity % | barometer mb |
| 20260502204755 | 59 | 172 | 1.0 | 6.0 | 0.00 | 0.00 | 0.00 | 79 | 1011.7 |
| 20260502202615 | 59 | 134 | 1.0 | 7.0 | 0.00 | 0.00 | 0.00 | 81 | 1011.9 |
| 20260502201610 | 58 | 169 | 1.0 | 7.0 | 0.00 | 0.00 | 0.00 | 81 | 1012.0 |
| 20260502200559 | 59 | 127 | 1.0 | 2.0 | 0.00 | 0.00 | 0.00 | 82 | 1012.1 |
| 20260502195538 | 58 | 207 | 1.0 | 6.0 | 0.00 | 0.00 | 0.00 | 82 | 1012.1 |
| 20260502194535 | 58 | 131 | 1.0 | 6.0 | 0.00 | 0.00 | 0.00 | 83 | 1012.0 |
| 20260502193512 | 57 | 167 | 0.0 | 8.0 | 0.00 | 0.00 | 0.00 | 85 | 1012.1 |
| 20260502192522 | 57 | 77 | 1.0 | 8.0 | 0.00 | 0.00 | 0.00 | 86 | 1012.2 |
| 20260502191448 | 56 | 148 | 1.0 | 4.0 | 0.00 | 0.00 | 0.00 | 86 | 1012.2 |
| 20260502190433 | 56 | 170 | 0.0 | 3.0 | 0.00 | 0.00 | 0.00 | 87 | 1012.3 |
| 20260502184239 | 56 | 176 | 0.0 | 9.0 | 0.00 | 0.00 | 0.00 | 87 | 1012.2 |
| 20260502183207 | 55 | 177 | 1.0 | 9.0 | 0.00 | 0.00 | 0.00 | 86 | 1012.2 |
| 20260502182151 | 55 | 202 | 1.0 | 6.0 | 0.00 | 0.00 | 0.00 | 87 | 1012.2 |
| 20260502181144 | 55 | 155 | 0.0 | 2.0 | 0.00 | 0.00 | 0.00 | 87 | 1012.2 |
| 20260502162639 | 55 | 178 | 0.0 | 3.0 | 0.00 | 0.00 | 0.00 | 89 | 1011.9 |
| 20260502160503 | 54 | 167 | 0.0 | 4.0 | 0.00 | 0.00 | 0.00 | 89 | 1011.7 |
| 20260502151417 | 54 | 208 | 0.0 | 4.0 | 0.00 | 0.00 | 0.00 | 89 | 1011.5 |
| 20260502150436 | 54 | 210 | 0.0 | 6.0 | 0.00 | 0.00 | 0.00 | 89 | 1011.4 |
| 20260502123727 | 53 | 151 | 1.0 | 6.0 | 0.00 | 0.00 | 0.00 | 89 | 1010.5 |
| 20260502122748 | 53 | 161 | 1.0 | 6.0 | 0.00 | 0.00 | 0.00 | 89 | 1010.5 |
| 20260502121747 | 53 | 207 | 1.0 | 4.0 | 0.00 | 0.00 | 0.00 | 89 | 1010.4 |
| 20260502115656 | 53 | 169 | 1.0 | 7.0 | 0.00 | 0.00 | 0.00 | 88 | 1010.5 |
| 20260502114651 | 53 | 119 | 1.0 | 6.0 | 0.00 | 0.00 | 0.00 | 89 | 1010.6 |
| 20260502113620 | 53 | 178 | 0.0 | 2.0 | 0.00 | 0.00 | 0.00 | 89 | 1010.6 |
| 20260502112635 | 53 | 182 | 0.0 | 3.0 | 0.00 | 0.00 | 0.00 | 89 | 1010.5 |
| 20260502111642 | 53 | 179 | 0.0 | 4.0 | 0.00 | 0.00 | 0.00 | 89 | 1010.6 |
| 20260502110639 | 53 | 131 | 1.0 | 3.0 | 0.00 | 0.00 | 0.00 | 89 | 1010.6 |
| 20260502105608 | 53 | 192 | 0.0 | 0.0 | 0.00 | 0.00 | 0.00 | 88 | 1010.6 |
| 20260502104628 | 53 | 166 | 0.0 | 2.0 | 0.00 | 0.00 | 0.00 | 89 | 1010.8 |
| 20260502103648 | 53 | 200 | 0.0 | 4.0 | 0.00 | 0.00 | 0.00 | 89 | 1010.8 |
| 20260502101511 | 53 | 175 | 1.0 | 4.0 | 0.00 | 0.00 | 0.00 | 89 | 1010.9 |
| 20260502100439 | 53 | 188 | 0.0 | 3.0 | 0.00 | 0.00 | 0.00 | 89 | 1010.9 |
| 20260502091410 | 54 | 78 | 0.0 | 4.0 | 0.00 | 0.00 | 0.00 | 89 | 1011.6 |
| 20260502090346 | 53 | 186 | 0.0 | 3.0 | 0.00 | 0.00 | 0.00 | 89 | 1011.5 |
| 20260502070854 | 54 | 191 | 0.0 | 8.0 | 0.00 | 0.00 | 0.00 | 88 | 1011.8 |
| 20260502065838 | 54 | 179 | 0.0 | 8.0 | 0.00 | 0.00 | 0.00 | 87 | 1011.9 |
| 20260502064809 | 54 | 194 | 0.0 | 3.0 | 0.00 | 0.00 | 0.00 | 87 | 1011.9 |
| 20260502063806 | 54 | 65 | 0.0 | 3.0 | 0.00 | 0.00 | 0.00 | 88 | 1011.8 |
| 20260502062821 | 54 | 107 | 0.0 | 3.0 | 0.00 | 0.00 | 0.00 | 87 | 1011.8 |
| 20260502061821 | 54 | 266 | 0.0 | 3.0 | 0.00 | 0.00 | 0.00 | 87 | 1011.8 |
| 20260502060806 | 54 | 182 | 0.0 | 3.0 | 0.00 | 0.00 | 0.00 | 87 | 1012.0 |
| 20260502055806 | 55 | 144 | 0.0 | 1.0 | 0.00 | 0.00 | 0.00 | 86 | 1012.1 |
| 20260502054824 | 55 | 186 | 0.0 | 2.0 | 0.00 | 0.00 | 0.00 | 87 | 1012.1 |
| 20260502053756 | 54 | 174 | 0.0 | 0.0 | 0.00 | 0.00 | 0.00 | 87 | 1012.1 |
| 20260502052752 | 54 | 150 | 0.0 | 3.0 | 0.00 | 0.00 | 0.00 | 87 | 1012.0 |
| 20260502051751 | 54 | 210 | 0.0 | 3.0 | 0.00 | 0.00 | 0.00 | 87 | 1012.0 |
| 20260502045610 | 55 | 167 | 0.0 | 2.0 | 0.00 | 0.00 | 0.00 | 86 | 1012.1 |
| 20260502044610 | 55 | 233 | 0.0 | 2.0 | 0.00 | 0.00 | 0.00 | 86 | 1012.0 |
| 20260502043613 | 55 | 123 | 0.0 | 4.0 | 0.00 | 0.00 | 0.00 | 86 | 1012.0 |
| 20260502042601 | 55 | 134 | 0.0 | 2.0 | 0.00 | 0.00 | 0.00 | 85 | 1011.8 |
| 20260502041538 | 55 | 159 | 0.0 | 4.0 | 0.00 | 0.00 | 0.00 | 85 | 1011.7 |
| 20260502040517 | 55 | 153 | 0.0 | 3.0 | 0.00 | 0.00 | 0.00 | 85 | 1011.6 |
| 20260502035523 | 55 | 188 | 0.0 | 4.0 | 0.00 | 0.00 | 0.00 | 85 | 1011.4 |
| 20260502034517 | 55 | 153 | 0.0 | 4.0 | 0.00 | 0.00 | 0.00 | 84 | 1011.2 |
| 20260502033451 | 56 | 184 | 0.0 | 5.0 | 0.00 | 0.00 | 0.00 | 83 | 1011.0 |
| 20260502032511 | 56 | 302 | 1.0 | 5.0 | 0.00 | 0.00 | 0.00 | 82 | 1011.0 |
| 20260502031520 | 57 | 196 | 0.0 | 0.0 | 0.00 | 0.00 | 0.00 | 81 | 1011.1 |
| 20260502030455 | 57 | 175 | 1.0 | 6.0 | 0.00 | 0.00 | 0.00 | 82 | 1010.9 |
| 20260502025443 | 57 | 194 | 1.0 | 6.0 | 0.00 | 0.00 | 0.00 | 81 | 1010.9 |
| 20260502023310 | 59 | 162 | 0.0 | 7.0 | 0.00 | 0.00 | 0.00 | 79 | 1010.9 |
| 20260502022244 | 59 | 189 | 1.0 | 7.0 | 0.00 | 0.00 | 0.00 | 79 | 1010.9 |
| 20260502021216 | 60 | 191 | 0.0 | 2.0 | 0.00 | 0.00 | 0.00 | 76 | 1010.7 |
| 20260502020146 | 60 | 223 | 0.0 | 3.0 | 0.00 | 0.00 | 0.00 | 75 | 1010.8 |
| 20260502015153 | 61 | 157 | 1.0 | 3.0 | 0.00 | 0.00 | 0.00 | 74 | 1010.7 |
| 20260502014149 | 61 | 184 | 0.0 | 3.0 | 0.00 | 0.00 | 0.00 | 74 | 1010.6 |
| 20260502013205 | 62 | 139 | 1.0 | 4.0 | 0.00 | 0.00 | 0.00 | 76 | 1010.7 |
| 20260502012150 | 62 | 174 | 1.0 | 5.0 | 0.00 | 0.00 | 0.00 | 75 | 1010.6 |
| 20260502010046 | 64 | 171 | 1.0 | 6.0 | 0.00 | 0.00 | 0.00 | 72 | 1010.9 |
| 20260502005036 | 64 | 177 | 0.0 | 4.0 | 0.00 | 0.00 | 0.00 | 71 | 1010.9 |
| 20260502004029 | 65 | 152 | 0.0 | 0.0 | 0.00 | 0.00 | 0.00 | 72 | 1010.8 |
| 20260502001816 | 65 | 143 | 0.0 | 5.0 | 0.00 | 0.00 | 0.00 | 72 | 1010.8 |
| 20260502000821 | 66 | 152 | 0.0 | 6.0 | 0.00 | 0.00 | 0.00 | 71 | 1010.9 |
| 20260501235821 | 66 | 125 | 1.0 | 6.0 | 0.00 | 0.00 | 0.00 | 70 | 1010.9 |
| 20260501234844 | 66 | 179 | 0.0 | 5.0 | 0.00 | 0.00 | 0.00 | 72 | 1010.9 |
| 20260501233811 | 67 | 173 | 1.0 | 7.0 | 0.00 | 0.00 | 0.00 | 71 | 1011.0 |
| 20260501232738 | 67 | 184 | 1.0 | 7.0 | 0.00 | 0.00 | 0.00 | 70 | 1011.0 |
| 20260501231703 | 67 | 182 | 1.0 | 6.0 | 0.00 | 0.00 | 0.00 | 70 | 1011.1 |
| 20260501230635 | 68 | 192 | 0.0 | 3.0 | 0.00 | 0.00 | 0.00 | 70 | 1011.2 |
| 20260501225633 | 68 | 215 | 1.0 | 6.0 | 0.00 | 0.00 | 0.00 | 70 | 1011.3 |
| 20260501224651 | 68 | 166 | 1.0 | 6.0 | 0.00 | 0.00 | 0.00 | 69 | 1011.5 |
| 20260501223654 | 68 | 190 | 1.0 | 5.0 | 0.00 | 0.00 | 0.00 | 70 | 1011.7 |
| 20260501222641 | 68 | 189 | 1.0 | 5.0 | 0.00 | 0.00 | 0.00 | 69 | 1011.9 |
| 20260501221610 | 68 | 187 | 1.0 | 5.0 | 0.00 | 0.00 | 0.00 | 69 | 1012.1 |
| 20260501220609 | 67 | 155 | 1.0 | 5.0 | 0.00 | 0.00 | 0.00 | 69 | 1012.3 |
| 20260501215621 | 67 | 163 | 1.0 | 5.0 | 0.00 | 0.00 | 0.00 | 71 | 1012.3 |
| 20260501214619 | 67 | 199 | 1.0 | 6.0 | 0.00 | 0.00 | 0.00 | 70 | 1012.4 |
| 20260501213643 | 66 | 158 | 1.0 | 8.0 | 0.00 | 0.00 | 0.00 | 71 | 1012.6 |
| 20260501212622 | 66 | 153 | 2.0 | 8.0 | 0.00 | 0.00 | 0.00 | 71 | 1012.6 |
| 20260501211619 | 66 | 126 | 2.0 | 7.0 | 0.00 | 0.00 | 0.00 | 71 | 1012.6 |
| 20260501210552 | 66 | 157 | 1.0 | 7.0 | 0.00 | 0.00 | 0.00 | 73 | 1012.8 |